STARLINK-1182 (45077 NORAD) Tracking and Keplerian Element Data

This shows tracking and keplerian element data for the satellite.

Feedback or suggestion? Click here.




ElementValue
Catalog45077
NameSTARLINK-1182
Epoch Orbit177
Epoch Day52.91667824
Epoch Year2020
RAAN119.4899
Inclination52.9965
Eccentricity0.0001272
Argument of Perigee47.4952
Mean Anonmoly107.9994
Mean Motion15.73159052
Decay Rate0.00196784
L11 45077U 20006AK 20052.91667824 .00196784 00000-0 13760-2 0 9997
L22 45077 52.9965 119.4899 0001272 47.4952 107.9994 15.73159052 1777

Live tracking and technical data element details for STARLINK-1182 (NORAD 45077). STARLINK-1182 can be tracked NOW for your location showing map with azimuth and elevation plus other details from your city location.

Track the satellite on the map from your city or location and see movement details for azimuth, elevation, latitude, longitude, range, height, and movement on the map or in text.







IsCatalogInMostPopularTable: catalog: 45077, numindb: 7
Update: records affected: 1



GetName: 45077 STARLINK-1182

Hit Count: updated at: Wed, 26 Feb 2020 16:22:02 GMT